Weather History for KBYI - August, 2014

Change the Weather History Date:

Sunday, August 3, 2014

  Actual Average Record
Temperature  
Mean Temperature 75 °F 70 °F  
Max Temperature 96 °F 87 °F 103 °F (1997)
Min Temperature 54 °F 54 °F 39 °F (1956)
Degree Days  
Heating Degree Days 0 0  
Month to date heating degree days 0 0  
Since 1 June heating degree days 107 156  
Since 1 July heating degree days 3 22  
Cooling Degree Days 10 6  
Month to date cooling degree days 29 18  
Year to date cooling degree days 301 231  
Since 1 June cooling degree days 300 225  
Growing Degree Days 26 (Base 50)    
Moisture  
Dew Point 48 °F    
Average Humidity 46    
Maximum Humidity 77    
Minimum Humidity 15    
Precipitation  
Precipitation T in 0.01 in 0.35 in (2003)
Month to date precipitation T 0.03  
Year to date precipitation 6.77 6.39  
Sea Level Pressure  
Sea Level Pressure 29.90 in    
Wind  
Wind Speed 8 mph (NE)    
Max Wind Speed 18 mph    
Max Gust Speed 34 mph    
Visibility 10 miles    
Events      
T = Trace of Precipitation, MM = Missing Value Source: NWS Daily Summary

Daily Weather History Graph

Daily Weather History Graph

Search for Another Location

Airport or City:

Trip Planner

Search our weather history database for the weather conditions in past years. The results will help you decide how hot, cold, wet, or windy it might be!

Date:

Astronomy

Aug. 03, 2014 Rise Set
Actual Time 6:29 AM MDT 8:52 PM MDT
Civil Twilight 5:57 AM MDT 9:24 PM MDT
Nautical Twilight 5:18 AM MDT 10:03 PM MDT
Astronomical Twilight 4:34 AM MDT 10:46 PM MDT
Moon 2:04 PM MDT (8/3) 12:04 AM MDT (8/3)
Length of Visible Light 15h 26m
Length of Day
14h 23m
Waxing Crescent, 47% of the Moon is Illuminated
Aug 3
Waxing Crescent
Aug 3
First Quarter
Aug 10
Full
Aug 17
Last Quarter
Aug 25
New

Hourly Weather History & Observations

Time (MDT) Temp. Heat Index Dew Point Humidity Pressure Visibility Wind Dir Wind Speed Gust Speed Precip Events Conditions
12:53 AM 66.0 °F - 48.9 °F 54% 29.91 in 10.0 mi Calm Calm - N/A   Clear
2:53 AM 60.1 °F - 48.0 °F 64% 29.92 in 10.0 mi Calm Calm - N/A   Clear
3:53 AM 57.0 °F - 50.0 °F 77% 29.94 in 10.0 mi Calm Calm - N/A   Clear
4:53 AM 60.1 °F - 51.1 °F 72% 29.94 in 10.0 mi ENE 5.8 mph - N/A   Clear
5:53 AM 59.0 °F - 51.1 °F 75% 29.94 in 10.0 mi North 4.6 mph - N/A   Clear
6:53 AM 57.9 °F - 48.9 °F 72% 29.95 in 10.0 mi North 4.6 mph - N/A   Clear
7:53 AM 63.0 °F - 48.9 °F 60% 29.96 in 10.0 mi ENE 5.8 mph - N/A   Clear
8:53 AM 70.0 °F - 50.0 °F 49% 29.98 in 10.0 mi ENE 9.2 mph - N/A   Clear
9:53 AM 73.9 °F - 50.0 °F 43% 29.97 in 10.0 mi NE 10.4 mph - N/A   Clear
10:53 AM 81.0 °F - 50.0 °F 34% 29.94 in 10.0 mi ENE 9.2 mph - N/A   Clear
11:53 AM 86.0 °F - 48.0 °F 27% 29.93 in 10.0 mi ENE 11.5 mph - N/A   Clear
12:53 PM 89.1 °F - 46.9 °F 23% 29.91 in 10.0 mi East 10.4 mph - N/A   Clear
1:53 PM 91.9 °F - 43.0 °F 18% 29.88 in 10.0 mi NE 9.2 mph - N/A   Clear
2:53 PM 93.9 °F - 39.9 °F 15% 29.86 in 10.0 mi ENE 9.2 mph - N/A   Clear
3:53 PM 95.0 °F - 41.0 °F 15% 29.83 in 10.0 mi Variable 4.6 mph - N/A   Clear
4:53 PM 93.0 °F - 43.0 °F 18% 29.81 in 10.0 mi NNE 9.2 mph - N/A   Clear
5:53 PM 87.1 °F - 44.1 °F 22% 29.83 in 10.0 mi SSE 13.8 mph 21.9 mph N/A   Clear
6:53 PM 86.0 °F 84.7 °F 55.9 °F 36% 29.82 in 10.0 mi WSW 3.5 mph - N/A   Clear
8:53 PM 80.1 °F - 46.0 °F 30% 29.86 in 10.0 mi NNE 4.6 mph - N/A   Clear
9:53 PM 82.9 °F - 43.0 °F 24% 29.89 in 10.0 mi NE 17.3 mph 31.1 mph N/A   Mostly Cloudy
11:53 PM 73.9 °F - 50.0 °F 43% 29.91 in 10.0 mi SSW 8.1 mph - N/A   Clear